Regional Weather Roundup
Issued by NWS Jackson, KY

Home | Current Version | Previous Version | Graphics & Text | Print | Product List | Glossary On
Versions: 1 2 3 4 5 6 7 8 9 10 11 12 13 14 15 16 17 18 19 20 21 22 23 24 25 26 27 28 29 30 31 32 33 34 35 36 37 38 39 40 41 42 43 44 45 46 47 48 49 50
021
ASUS43 KJKL 241010
RWRJKL

EAST KENTUCKY HOURLY WEATHER ROUNDUP
NATIONAL WEATHER SERVICE JACKSON KY
500 AM EST FRI NOV 24 2017

NOTE: "FAIR" INDICATES FEW OR NO CLOUDS BELOW 12,000 FEET WITH
NO SIGNIFICANT WEATHER AND/OR OBSTRUCTIONS TO VISIBILITY.

* THESE REPORTS ARE NOT UNDER NWS QUALITY CONTROL AND MAY NOT
  REPORT WEATHER SUCH AS PRECIPITATION AND FOG.

KYZ079-080-083-085-087-088-110-112-115-119-120-241100
...EASTERN KENTUCKY...

CITY           SKY/WX    TMP DP  RH WIND       PRES   REMARKS
JACKSON        CLOUDY    33  21  61 SW3       30.01S
LONDON         CLOUDY    28  23  81 CALM      30.02S
SOMERSET*      CLOUDY    27  25  93 CALM      30.05R
MONTICELLO*    CLOUDY    22  19  89 NE10      30.04F WCI  11
WILLIAMSBURG*  CLOUDY    27  27 100 CALM      30.02F
MIDDLESBORO*   CLEAR     26  25  96 CALM      30.06S
HARLAN APT*    CLOUDY    28  27  93 CALM      30.03S
PIKE CO APT*     N/A     33  23  64 S5        30.01S WCI  29
BIG SANDY APT* CLOUDY    32  24  72 CALM      30.03R
MOREHEAD APT*  CLOUDY    28  21  74 S5        30.03S WCI  23
$$

KYZ035-036-041-042-044-050-067-078-099-241100
...CENTRAL KENTUCKY...

CITY           SKY/WX    TMP DP  RH WIND       PRES   REMARKS
MT STERLING*   CLOUDY    27  23  86 CALM      30.03S
DANVILLE*      CLOUDY    27  23  86 S3        30.02S
LEXINGTON      CLOUDY    28  22  78 SE6       30.01S WCI  22
FRANKFORT      CLOUDY    27  22  81 CALM      29.99F
LOUISVILLE     CLOUDY    33  25  72 SE6       29.99F WCI  28
LEBANON*         N/A     34  23  64 S5        30.00F WCI  30
GLASGOW*       CLOUDY    26  26  99 CALM      30.01S
BOWLING GREEN  CLOUDY    27  25  92 CALM      30.01F
$$

KYZ091>093-OHZ055-061-077-WVZ005-015-034-035-042-241100
...SOUTHERN OHIO/WEST VIRGINIA...

CITY           SKY/WX    TMP DP  RH WIND       PRES   REMARKS
COVINGTON      CLEAR     30  25  81 S7        29.97F WCI  23
COLUMBUS       CLOUDY    28  23  81 CALM      29.98F
DAYTON         CLOUDY    33  26  75 S10       29.96F WCI  25
WILMINGTON     CLOUDY    30  25  81 S6        29.97F WCI  24
HUNTINGTON     CLOUDY    27  22  81 E5        30.03S WCI  22
CHARLESTON     CLOUDY    26  23  88 CALM      30.03S
PINEVILLE*       N/A     26  22  85 MISG      30.07R
BECKLEY        CLEAR     31  16  54 CALM      29.99F
BLUEFIELD      CLEAR     37  20  50 S3        30.00F
LOGAN CO APT*    N/A     34  21  60 CALM      30.01R
$$

VAZ002-007-008-TNZ017-027-036-066-071-241100
...SOUTHWEST VIRGINIA/EAST TENNESSEE...

CITY           SKY/WX    TMP DP  RH WIND       PRES   REMARKS
WISE*          CLOUDY    39  27  60 S5        30.00S
JONESVILLE*      N/A     27  25  93 CALM      30.06S
ABINGDON*      CLEAR     30  28  90 E6        30.02F WCI  24
BRISTOL        CLEAR     28  27  96 CALM      30.04F
MORRISTOWN*    SUNNY     32  30  93 CALM      30.02F
SEVIERVILLE*   SUNNY     28  28 100 CALM      30.03F
KNOXVILLE      CLEAR     32  32 100 CALM      30.02F
LAFOLLETTE*    SUNNY     28  28 100 CALM      30.07S
OAK RIDGE      CLOUDY    30  30 100 CALM      30.05S FOG
CROSSVILLE     CLOUDY    29  23  78 CALM      30.01F
NASHVILLE      CLEAR     32  26  78 CALM      30.03S
$$

...KEY TO REMARKS...
VSB - VISIBILITY IN MILES
WCI - WIND CHILL INDEX
HX  - HEAT INDEX

$$




USA.gov is the U.S. government's official web portal to all federal, state and local government web resources and services.